| time (UTC) | temp C | wind direction | speed KPH | gust KPH | rain 1hr cm | rain 24hr cm | rain mn cm | humidity % | barometer mb |
| 20260509113122 | 3 | 209 | 1.6 | 6.4 | 0.00 | 0.00 | 0.00 | 68 | 1012.8 |
| 20260509111605 | 3 | 218 | 1.6 | 4.8 | 0.00 | 0.00 | 0.00 | 67 | 1012.6 |
| 20260509110058 | 2 | 115 | 0.0 | 0.0 | 0.00 | 0.00 | 0.00 | 69 | 1012.6 |
| 20260509110001 | 2 | 115 | 0.0 | 0.0 | 0.00 | 0.00 | 0.00 | 69 | 1012.6 |
| 20260509104600 | 2 | 115 | 0.0 | 3.2 | 0.00 | 0.00 | 0.00 | 70 | 1012.6 |
| 20260509103103 | 2 | 109 | 0.0 | 0.0 | 0.00 | 0.00 | 0.00 | 70 | 1012.4 |
| 20260509101604 | 1 | 109 | 0.0 | 4.8 | 0.00 | 0.00 | 0.00 | 73 | 1012.3 |
| 20260509100114 | 1 | 342 | 0.0 | 0.0 | 0.00 | 0.00 | 0.00 | 74 | 1012.3 |
| 20260509100002 | 1 | 342 | 0.0 | 0.0 | 0.00 | 0.00 | 0.00 | 74 | 1012.2 |
| 20260509094604 | 1 | 342 | 1.6 | 4.8 | 0.00 | 0.00 | 0.00 | 71 | 1012.1 |
| 20260509093108 | 1 | 341 | 0.0 | 0.0 | 0.00 | 0.00 | 0.00 | 70 | 1012.0 |
| 20260509091611 | 2 | 341 | 0.0 | 0.0 | 0.00 | 0.00 | 0.00 | 70 | 1011.9 |
| 20260509090059 | 2 | 341 | 0.0 | 3.2 | 0.00 | 0.00 | 0.00 | 68 | 1011.9 |
| 20260509090001 | 2 | 341 | 0.0 | 3.2 | 0.00 | 0.00 | 0.00 | 68 | 1011.9 |
| 20260509084559 | 2 | 340 | 0.0 | 3.2 | 0.00 | 0.00 | 0.00 | 67 | 1011.9 |
| 20260509083059 | 2 | 340 | 0.0 | 0.0 | 0.00 | 0.00 | 0.00 | 67 | 1011.8 |
| 20260509081602 | 2 | 340 | 0.0 | 0.0 | 0.00 | 0.00 | 0.00 | 66 | 1011.7 |
| 20260509074602 | 2 | 339 | 0.0 | 0.0 | 0.00 | 0.00 | 0.00 | 64 | 1011.9 |
| 20260509073107 | 2 | 339 | 0.0 | 0.0 | 0.00 | 0.00 | 0.00 | 63 | 1012.0 |
| 20260509071558 | 3 | 339 | 0.0 | 0.0 | 0.00 | 0.00 | 0.00 | 61 | 1012.0 |
| 20260509064601 | 2 | 345 | 0.0 | 0.0 | 0.00 | 0.00 | 0.00 | 60 | 1012.1 |
| 20260509063102 | 2 | 344 | 0.0 | 0.0 | 0.00 | 0.00 | 0.00 | 60 | 1012.1 |
| 20260509061609 | 3 | 344 | 0.0 | 0.0 | 0.00 | 0.00 | 0.00 | 59 | 1012.2 |
| 20260509060059 | 3 | 345 | 0.0 | 0.0 | 0.00 | 0.00 | 0.00 | 58 | 1012.2 |
| 20260509054604 | 3 | 344 | 0.0 | 0.0 | 0.00 | 0.00 | 0.00 | 58 | 1012.0 |
| 20260509053102 | 3 | 344 | 0.0 | 0.0 | 0.00 | 0.00 | 0.00 | 57 | 1012.0 |
| 20260509051558 | 3 | 344 | 0.0 | 0.0 | 0.00 | 0.00 | 0.00 | 57 | 1011.9 |
| 20260509050058 | 3 | 344 | 0.0 | 0.0 | 0.00 | 0.00 | 0.00 | 56 | 1012.0 |
| 20260509044559 | 3 | 344 | 0.0 | 0.0 | 0.00 | 0.00 | 0.00 | 56 | 1012.0 |
| 20260509043101 | 3 | 344 | 0.0 | 0.0 | 0.00 | 0.00 | 0.00 | 56 | 1012.0 |
| 20260509041559 | 3 | 345 | 0.0 | 0.0 | 0.00 | 0.00 | 0.00 | 56 | 1012.1 |
| 20260509041508 | 3 | 345 | 0.0 | 0.0 | 0.00 | 0.00 | 0.00 | 56 | 1012.1 |
| 20260509040100 | 3 | 345 | 0.0 | 0.0 | 0.00 | 0.00 | 0.00 | 57 | 1011.9 |
| 20260509040003 | 3 | 345 | 0.0 | 0.0 | 0.00 | 0.00 | 0.00 | 57 | 1011.9 |
| 20260509034604 | 3 | 344 | 0.0 | 0.0 | 0.00 | 0.00 | 0.00 | 57 | 1011.8 |
| 20260509033100 | 3 | 344 | 0.0 | 0.0 | 0.00 | 0.00 | 0.00 | 57 | 1011.6 |
| 20260509031603 | 3 | 344 | 0.0 | 0.0 | 0.00 | 0.00 | 0.00 | 57 | 1011.4 |
| 20260509030059 | 3 | 344 | 0.0 | 0.0 | 0.00 | 0.00 | 0.00 | 58 | 1011.3 |
| 20260509030004 | 3 | 344 | 0.0 | 0.0 | 0.00 | 0.00 | 0.00 | 58 | 1011.3 |
| 20260509024559 | 3 | 344 | 0.0 | 0.0 | 0.00 | 0.00 | 0.00 | 58 | 1011.3 |
| 20260509023100 | 3 | 344 | 0.0 | 0.0 | 0.00 | 0.00 | 0.00 | 57 | 1011.1 |
| 20260509021606 | 4 | 344 | 0.0 | 0.0 | 0.00 | 0.00 | 0.00 | 55 | 1011.3 |
| 20260509020100 | 3 | 344 | 0.0 | 0.0 | 0.00 | 0.00 | 0.00 | 56 | 1011.0 |
| 20260509020001 | 3 | 344 | 0.0 | 0.0 | 0.00 | 0.00 | 0.00 | 56 | 1011.1 |
| 20260509014600 | 3 | 344 | 0.0 | 0.0 | 0.00 | 0.00 | 0.00 | 58 | 1010.9 |
| 20260509013100 | 4 | 344 | 0.0 | 0.0 | 0.00 | 0.00 | 0.00 | 57 | 1010.8 |
| 20260509011606 | 4 | 344 | 0.0 | 0.0 | 0.00 | 0.00 | 0.00 | 57 | 1010.7 |
| 20260509010059 | 4 | 344 | 0.0 | 0.0 | 0.00 | 0.00 | 0.00 | 55 | 1010.5 |
| 20260509004559 | 4 | 344 | 0.0 | 0.0 | 0.00 | 0.00 | 0.00 | 57 | 1010.3 |
| 20260509003108 | 4 | 344 | 0.0 | 0.0 | 0.00 | 0.00 | 0.00 | 59 | 1010.1 |
| 20260509001615 | 4 | 344 | 0.0 | 0.0 | 0.00 | 0.00 | 0.00 | 58 | 1010.1 |
| 20260509000107 | 5 | 344 | 0.0 | 0.0 | 0.00 | 0.00 | 0.00 | 58 | 1009.8 |
| 20260508234600 | 5 | 344 | 0.0 | 0.0 | 0.00 | 0.00 | 0.00 | 58 | 1009.8 |
| 20260508233107 | 6 | 344 | 0.0 | 3.2 | 0.00 | 0.00 | 0.00 | 57 | 1009.7 |
| 20260508230103 | 6 | 280 | 0.0 | 3.2 | 0.00 | 0.00 | 0.00 | 55 | 1009.6 |
| 20260508230001 | 6 | 280 | 0.0 | 3.2 | 0.00 | 0.00 | 0.00 | 55 | 1009.6 |
| 20260508224610 | 6 | 275 | 0.0 | 1.6 | 0.00 | 0.00 | 0.00 | 52 | 1009.4 |
| 20260508224500 | 6 | 275 | 0.0 | 1.6 | 0.00 | 0.00 | 0.00 | 53 | 1009.5 |
| 20260508223059 | 6 | 274 | 0.0 | 4.8 | 0.00 | 0.00 | 0.00 | 52 | 1009.3 |
| 20260508221603 | 7 | 322 | 0.0 | 6.4 | 0.00 | 0.00 | 0.00 | 52 | 1009.3 |
| 20260508220001 | 7 | 333 | 1.6 | 14.5 | 0.00 | 0.00 | 0.00 | 50 | 1009.1 |
| 20260508214641 | 7 | 331 | 0.0 | 9.7 | 0.00 | 0.00 | 0.00 | 53 | 1009.0 |
| 20260508213059 | 7 | 338 | 1.6 | 12.9 | 0.00 | 0.00 | 0.00 | 51 | 1008.9 |
| 20260508211559 | 7 | 350 | 1.6 | 11.3 | 0.00 | 0.00 | 0.00 | 52 | 1008.8 |
| 20260508210100 | 7 | 339 | 3.2 | 9.7 | 0.00 | 0.00 | 0.00 | 48 | 1008.7 |
| 20260508204600 | 7 | 333 | 3.2 | 12.9 | 0.00 | 0.00 | 0.00 | 50 | 1008.7 |
| 20260508203118 | 7 | 336 | 0.0 | 6.4 | 0.00 | 0.00 | 0.00 | 54 | 1008.6 |
| 20260508201559 | 7 | 5 | 3.2 | 6.4 | 0.00 | 0.00 | 0.00 | 51 | 1008.6 |
| 20260508200103 | 7 | 355 | 1.6 | 9.7 | 0.00 | 0.00 | 0.00 | 51 | 1008.6 |
| 20260508200002 | 7 | 355 | 3.2 | 9.7 | 0.00 | 0.00 | 0.00 | 51 | 1008.6 |
| 20260508194600 | 7 | 323 | 3.2 | 9.7 | 0.00 | 0.00 | 0.00 | 50 | 1008.6 |
| 20260508193139 | 7 | 319 | 1.6 | 8.0 | 0.00 | 0.00 | 0.00 | 51 | 1008.6 |
| 20260508191606 | 7 | 337 | 1.6 | 12.9 | 0.00 | 0.00 | 0.00 | 50 | 1008.7 |
| 20260508190059 | 7 | 355 | 1.6 | 12.9 | 0.00 | 0.00 | 0.00 | 55 | 1008.6 |
| 20260508190002 | 7 | 355 | 3.2 | 12.9 | 0.00 | 0.00 | 0.00 | 53 | 1008.7 |
| 20260508184600 | 6 | 336 | 1.6 | 11.3 | 0.00 | 0.00 | 0.00 | 55 | 1008.8 |
| 20260508183107 | 6 | 340 | 1.6 | 12.9 | 0.00 | 0.00 | 0.00 | 54 | 1008.6 |
| 20260508181559 | 6 | 355 | 0.0 | 4.8 | 0.00 | 0.00 | 0.00 | 59 | 1008.6 |
| 20260508180132 | 6 | 331 | 1.6 | 6.4 | 0.00 | 0.00 | 0.00 | 57 | 1008.8 |
| 20260508180001 | 6 | 331 | 1.6 | 6.4 | 0.00 | 0.00 | 0.00 | 60 | 1008.8 |
| 20260508174612 | 5 | 344 | 0.0 | 8.0 | 0.00 | 0.00 | 0.00 | 63 | 1008.7 |
| 20260508173059 | 5 | 323 | 1.6 | 6.4 | 0.00 | 0.00 | 0.00 | 59 | 1008.5 |
| 20260508171559 | 6 | 306 | 3.2 | 12.9 | 0.00 | 0.00 | 0.00 | 54 | 1008.5 |
| 20260508170059 | 6 | 340 | 1.6 | 8.0 | 0.00 | 0.00 | 0.00 | 60 | 1008.4 |
| 20260508170011 | 6 | 338 | 1.6 | 14.5 | 0.00 | 0.00 | 0.00 | 58 | 1008.4 |
| 20260508164608 | 6 | 252 | 1.6 | 12.9 | 0.00 | 0.00 | 0.00 | 53 | 1008.4 |
| 20260508163100 | 7 | 331 | 1.6 | 9.7 | 0.00 | 0.00 | 0.00 | 54 | 1008.3 |
| 20260508161604 | 7 | 223 | 1.6 | 14.5 | 0.00 | 0.00 | 0.00 | 56 | 1008.3 |
| 20260508160026 | 7 | 333 | 3.2 | 12.9 | 0.00 | 0.00 | 0.00 | 57 | 1008.4 |
| 20260508154605 | 6 | 334 | 1.6 | 9.7 | 0.00 | 0.00 | 0.00 | 61 | 1008.6 |
| 20260508153059 | 5 | 12 | 1.6 | 12.9 | 0.00 | 0.00 | 0.00 | 66 | 1008.6 |
| 20260508151601 | 5 | 302 | 1.6 | 8.0 | 0.00 | 0.00 | 0.00 | 66 | 1008.6 |
| 20260508150008 | 5 | 340 | 1.6 | 9.7 | 0.00 | 0.00 | 0.00 | 67 | 1008.5 |
| 20260508144559 | 5 | 327 | 1.6 | 8.0 | 0.00 | 0.00 | 0.00 | 69 | 1008.5 |
| 20260508143108 | 5 | 277 | 3.2 | 12.9 | 0.00 | 0.00 | 0.00 | 68 | 1008.5 |
| 20260508141559 | 5 | 327 | 3.2 | 9.7 | 0.00 | 0.00 | 0.00 | 70 | 1008.3 |
| 20260508140108 | 5 | 334 | 0.0 | 6.4 | 0.00 | 0.00 | 0.00 | 69 | 1008.3 |
| 20260508134606 | 6 | 277 | 1.6 | 9.7 | 0.00 | 0.00 | 0.00 | 70 | 1008.4 |
| 20260508133058 | 5 | 325 | 0.0 | 4.8 | 0.00 | 0.00 | 0.00 | 71 | 1008.4 |
| 20260508131600 | 4 | 330 | 1.6 | 4.8 | 0.00 | 0.00 | 0.00 | 72 | 1008.4 |
| 20260508130002 | 4 | 331 | 1.6 | 6.4 | 0.00 | 0.00 | 0.00 | 72 | 1008.4 |
| 20260508124559 | 4 | 321 | 0.0 | 8.0 | 0.00 | 0.00 | 0.00 | 74 | 1008.3 |
| 20260508123100 | 4 | 281 | 1.6 | 6.4 | 0.00 | 0.00 | 0.00 | 73 | 1008.2 |
| 20260508121559 | 3 | 234 | 1.6 | 4.8 | 0.00 | 0.00 | 0.00 | 75 | 1008.2 |
| 20260508114609 | 2 | 266 | 0.0 | 4.8 | 0.00 | 0.00 | 0.00 | 76 | 1008.0 |